History for KNYNEWYO218

Midtown, New York, NY — Current Conditions
Daily Summary for August 22, 2017
  Current: High: Low: Average:
Temperature: 90.5°F 97.0°F 77.4°F 87.2°F
Dew Point: 72.5°F 79.1°F 65.0°F 68.4°F
Humidity: 55% 70% 54% 63%
Wind Speed: - 0.0mph - 0.0mph
Wind Gust: - 0.0mph - -
Wind: North - - North
Pressure: 29.84in 30.14in 29.84in -
Precipitation: 0.00in      
Statistics for the rest of the month
    High: Low: Average:
Temperature:   104.4°F 68.4°F 81.7°F
Dew Point:   79.1°F 51.8°F 62.7°F
Humidity:   74.0% 34.0% 57.8%
Wind Speed:   0.0mph from the North - 0.0mph
Wind Gust:   0.0mph from the North - -
Wind:   - - North
Pressure:   30.29in 29.81in -
Precipitation:   0.00in    
KNYNEWYO218 Weather Graph
Tabular Data for August 22, 2017
Time Temp. Heat Index Dew Point Pressure Wind Gust Humidity Rainfall
00:13 80.4°F 82.4°F 66.0°F 30.14in - 61% -
00:33 80.1°F 82.0°F 65.7°F 30.14in - 61% -
00:43 79.9°F - 65.5°F 30.13in - 61% -
01:03 79.7°F - 65.3°F 30.13in - 61% -
01:13 79.5°F - 65.2°F 30.13in - 61% -
01:33 79.3°F - 65.5°F 30.12in - 62% -
01:43 79.2°F - 65.3°F 30.12in - 62% -
02:04 79.0°F - 65.1°F 30.11in - 62% -
02:14 79.0°F - 65.1°F 30.11in - 62% -
02:34 78.8°F - 65.0°F 30.11in - 62% -
02:44 78.8°F - 65.0°F 30.11in - 62% -
03:04 78.8°F - 65.4°F 30.10in - 63% -
03:14 78.8°F - 65.4°F 30.10in - 63% -
03:34 78.4°F - 65.5°F 30.09in - 64% -
03:44 78.3°F - 65.3°F 30.10in - 64% -
04:15 77.9°F - 65.4°F 30.09in - 65% -
04:35 77.5°F - 65.1°F 30.08in - 65% -
04:45 77.5°F - 65.1°F 30.08in - 65% -
05:05 77.4°F - 65.3°F 30.09in - 66% -
05:15 77.4°F - 65.3°F 30.09in - 66% -
05:35 77.5°F - 65.5°F 30.08in - 66% -
05:45 77.4°F - 65.8°F 30.08in - 67% -
06:06 77.4°F - 65.8°F 30.09in - 67% -
06:16 77.4°F - 65.8°F 30.08in - 67% -
06:36 77.4°F - 66.2°F 30.08in - 68% -
06:46 77.4°F - 65.8°F 30.09in - 67% -
07:06 77.5°F - 66.4°F 30.08in - 68% -
07:16 77.7°F - 66.5°F 30.07in - 68% -
07:47 77.9°F - 66.7°F 30.07in - 68% -
08:17 77.7°F - 67.0°F 30.07in - 69% -
08:37 78.1°F - 67.3°F 30.06in - 69% -
08:47 78.3°F - 67.9°F 30.06in - 70% -
09:07 78.6°F - 67.8°F 30.06in - 69% -
09:17 78.8°F - 68.0°F 30.05in - 69% -
09:38 79.3°F - 68.5°F 30.04in - 69% -
09:48 79.7°F - 68.9°F 30.05in - 69% -
10:18 80.4°F 83.3°F 69.1°F 30.04in - 68% -
10:48 81.0°F 84.1°F 69.2°F 30.03in - 67% -
11:19 81.9°F 85.6°F 70.1°F 30.03in - 67% -
11:49 86.5°F 94.1°F 73.7°F 30.02in - 65% -
12:19 96.4°F 113.7°F 78.6°F 30.00in - 56% -
12:50 97.0°F 115.4°F 79.1°F 29.99in - 56% -
13:10 94.6°F 109.4°F 77.0°F 29.98in - 56% -
13:40 91.0°F 100.3°F 74.1°F 29.97in - 57% -
14:10 89.6°F 98.2°F 73.7°F 29.95in - 59% -
14:41 90.3°F 99.8°F 74.4°F 29.93in - 59% -
15:11 90.5°F 100.3°F 74.6°F 29.92in - 59% -
15:41 91.0°F 100.3°F 74.1°F 29.91in - 57% -
16:11 91.0°F 100.3°F 73.6°F 29.87in - 56% -
16:41 91.4°F 100.7°F 73.9°F 29.86in - 56% -
17:12 91.0°F 98.6°F 72.5°F 29.86in - 54% -
17:42 90.5°F 98.1°F 72.5°F 29.84in - 55% -
Comma Delimited File
Powered by Weather Underground, Inc.